Volver al catálogo

STARLINK-1281

ActivoComunicacionesVLEO
NORAD 45370·PAYLOAD·🇺🇸 United States

Lanzado Mar 18, 2020 desde Cape Canaveral Space Force Station

Loading…

Próximos Pases (próximas 24 horas)

TLE

ActualizadoSource: CelesTrak SupGP

Época: Sep 15, 2026, 01:32 UTC

1 45370C 20019L   26258.06437500  .00076113  00000+0  16841-2 0  2586
2 45370  53.1543 358.3892 0003447  29.5197 283.7859 15.43181337    10

Sigue STARLINK-1281 en tiempo real con AllMySat

Download on the App Store